Weather History for KMBG - January, 2004

Change the Weather History Date:

Sunday, January 11, 2004

  Actual Average Record
Temperature  
Mean Temperature 34 °F 16 °F  
Max Temperature 48 °F 25 °F 57 °F (1987)
Min Temperature 19 °F 6 °F -27 °F (1918)
Degree Days  
Heating Degree Days 32 49  
Month to date heating degree days 539  
Since 1 July heating degree days 3755  
Cooling Degree Days 0 0  
Month to date cooling degree days 0  
Year to date cooling degree days 0  
Moisture  
Dew Point 24 °F    
Average Humidity 68    
Maximum Humidity 93    
Minimum Humidity 44    
Precipitation  
Precipitation 0.00 in 0.01 in 0.27 in (2013)
Month to date precipitation 0.13  
Year to date precipitation 0.13  
Snow  
Snow 0.00 in - - ()
Month to date snowfall  
Since 1 July snowfall  
Snow Depth -    
Sea Level Pressure  
Sea Level Pressure 30.01 in    
Wind  
Wind Speed 9 mph (NW)    
Max Wind Speed 22 mph    
Max Gust Speed 36 mph    
Visibility 9 miles    
Events      
T = Trace of Precipitation, MM = Missing Value Source: NWS Daily Summary

Daily Weather History Graph

Daily Weather History Graph

Search for Another Location

Airport or City:

Trip Planner

Search our weather history database for the weather conditions in past years. The results will help you decide how hot, cold, wet, or windy it might be!

Date:

Astronomy

Jan. 11, 2004 Rise Set
Actual Time 8:20 AM CST 5:18 PM CST
Civil Twilight 7:46 AM CST 5:52 PM CST
Nautical Twilight 7:09 AM CST 6:29 PM CST
Astronomical Twilight 6:34 AM CST 7:05 PM CST
Moon 9:39 PM CST (1/11) 10:58 AM CST (1/11)
Length of Visible Light 10h 05m
Length of Day
8h 58m
Waning Gibbous, 84% of the Moon is Illuminated
Jan 11
Waning Gibbous
Jan 14
Last Quarter
Jan 21
New
Jan 29
First Quarter
Feb 6
Full

Hourly Weather History & Observations

Time (CST) Temp. Windchill Dew Point Humidity Pressure Visibility Wind Dir Wind Speed Gust Speed Precip Events Conditions
12:55 AM 26.1 °F - 21.0 °F 81% 29.92 in 10.0 mi Calm Calm - N/A   Clear
1:55 AM 28.9 °F 25.2 °F 24.1 °F 82% 29.90 in 10.0 mi NW 3.5 mph - N/A   Clear
2:55 AM 32.0 °F 24.2 °F 26.1 °F 79% 29.89 in 10.0 mi WNW 9.2 mph - N/A   Clear
3:55 AM 30.9 °F 24.3 °F 25.0 °F 79% 29.89 in 10.0 mi WNW 6.9 mph - N/A   Clear
4:55 AM 36.0 °F 31.1 °F 26.1 °F 67% 29.89 in 10.0 mi WNW 5.8 mph - N/A   Clear
5:55 AM 30.0 °F 24.1 °F 21.9 °F 72% 29.90 in 10.0 mi West 5.8 mph - N/A   Clear
6:55 AM 33.1 °F 25.5 °F 25.0 °F 72% 29.89 in 10.0 mi WNW 9.2 mph - N/A   Clear
7:55 AM 48.9 °F - 28.0 °F 44% 29.88 in 10.0 mi WNW 13.8 mph - N/A   Overcast
8:55 AM 48.0 °F - 30.9 °F 52% 29.88 in 10.0 mi WNW 18.4 mph 26.5 mph N/A   Overcast
9:55 AM 48.9 °F - 32.0 °F 52% 29.91 in 10.0 mi WNW 20.7 mph 28.8 mph N/A   Overcast
10:55 AM 48.0 °F - 32.0 °F 54% 29.94 in 10.0 mi NW 18.4 mph 25.3 mph N/A   Overcast
11:55 AM 48.0 °F - 32.0 °F 54% 29.97 in 10.0 mi NNW 19.6 mph 23.0 mph N/A   Overcast
12:55 PM 44.1 °F 35.4 °F 28.0 °F 53% 29.99 in 10.0 mi NW 21.9 mph 35.7 mph N/A   Overcast
1:55 PM 39.9 °F 30.2 °F 27.0 °F 60% 30.00 in 10.0 mi NNW 20.7 mph 31.1 mph N/A   Overcast
2:55 PM 35.1 °F 25.5 °F 26.1 °F 70% 30.03 in 9.0 mi NNW 15.0 mph 25.3 mph N/A   Overcast
3:55 PM 41.0 °F 32.2 °F 25.0 °F 53% 30.07 in 10.0 mi NW 18.4 mph 25.3 mph N/A   Overcast
4:55 PM 39.0 °F 30.3 °F 24.1 °F 55% 30.10 in 10.0 mi NNW 16.1 mph - N/A   Overcast
5:28 PM 37.4 °F 28.5 °F 23.0 °F 56% 30.07 in 10.0 mi NNW 15.0 mph - N/A   Scattered Clouds
5:55 PM 37.9 °F 30.9 °F 21.9 °F 53% 30.13 in 10.0 mi NNW 10.4 mph - N/A   Clear
6:55 PM 36.0 °F 30.3 °F 19.9 °F 52% 30.13 in 9.0 mi NNW 6.9 mph - N/A   Clear
7:55 PM 19.9 °F - 17.1 °F 89% 30.14 in 8.0 mi Calm Calm - N/A   Mostly Cloudy
8:10 PM 21.2 °F - 19.4 °F 93% 30.09 in 8.0 mi Calm Calm - N/A   Overcast
8:55 PM 21.9 °F - 19.9 °F 92% 30.16 in 8.0 mi Calm Calm - N/A   Scattered Clouds
9:55 PM 25.0 °F 20.7 °F 19.9 °F 81% 30.15 in 7.0 mi SE 3.5 mph - N/A   Clear
10:55 PM 23.0 °F 18.4 °F 16.0 °F 74% 30.15 in 6.0 mi East 3.5 mph - N/A   Haze
11:55 PM 19.0 °F 13.9 °F 17.1 °F 92% 30.16 in 6.0 mi SE 3.5 mph - N/A   Clear